Weather History for Orr, MN

Change the Weather History Date:

Friday, December 6, 2013

  Actual Average Record
Temperature  
Mean Temperature -8 °F -  
Max Temperature 1 °F 24 °F 35 °F (2004)
Min Temperature -16 °F 11 °F -16 °F (2013)
Degree Days  
Heating Degree Days 72    
Moisture  
Dew Point -14 °F    
Average Humidity 74    
Maximum Humidity 84    
Minimum Humidity 61    
Precipitation  
Precipitation 0.00 in - - ()
Sea Level Pressure  
Sea Level Pressure 30.25 in    
Wind  
Wind Speed 6 mph (West)    
Max Wind Speed 12 mph    
Max Gust Speed -    
Visibility 10 miles    
Events      
Averages and records for this station are not official NWS values.
T = Trace of Precipitation, MM = Missing Value Source: NWS Daily Summary

Daily Weather History Graph

Daily Weather History Graph

Search for Another Location

Airport:

Trip Planner

Search our weather history database for the weather conditions in past years. The results will help you decide how hot, cold, wet, or windy it might be!

Date:

Astronomy

Dec. 06, 2013 Rise Set
Actual Time 7:46 AM CST 4:18 PM CST
Civil Twilight 7:10 AM CST 4:54 PM CST
Nautical Twilight 6:31 AM CST 5:33 PM CST
Astronomical Twilight 5:53 AM CST 6:11 PM CST
Moon 10:41 AM CST (12/6) 9:03 PM CST (12/6)
Length of Visible Light 9h 44m
Length of Day
8h 32m
Waxing Crescent, 19% of the Moon is Illuminated
Dec 6
Waxing Crescent
Dec 9
First Quarter
Dec 17
Full
Dec 25
Last Quarter
Jan 1
New

Hourly Weather History & Observations

Time (CST) Temp. Windchill Dew Point Humidity Pressure Visibility Wind Dir Wind Speed Gust Speed Precip Events Conditions
12:13 AM -5.8 °F -21.2 °F -9.4 °F 84% 30.07 in 10.0 mi West 8.1 mph - N/A   Overcast
12:33 AM -5.8 °F -18.4 °F -11.2 °F 77% 30.08 in 10.0 mi WSW 5.8 mph - N/A   Overcast
12:53 AM -5.8 °F -18.4 °F -11.2 °F 77% 30.09 in 10.0 mi West 5.8 mph - N/A   Overcast
1:13 AM -7.6 °F -22.1 °F -11.2 °F 84% 30.09 in 10.0 mi West 6.9 mph - N/A   Overcast
1:33 AM -7.6 °F -22.1 °F -13.0 °F 77% 30.09 in 10.0 mi West 6.9 mph - N/A   Scattered Clouds
1:53 AM -7.6 °F -24.6 °F -13.0 °F 77% 30.10 in 10.0 mi West 9.2 mph - N/A   Scattered Clouds
2:13 AM -7.6 °F -20.6 °F -13.0 °F 77% 30.11 in 10.0 mi West 5.8 mph - N/A   Scattered Clouds
2:33 AM -9.4 °F -24.3 °F -14.8 °F 77% 30.12 in 10.0 mi West 6.9 mph - N/A   Scattered Clouds
2:53 AM -9.4 °F -24.3 °F -14.8 °F 77% 30.13 in 10.0 mi West 6.9 mph - N/A   Clear
3:13 AM -9.4 °F -26.8 °F -14.8 °F 77% 30.13 in 10.0 mi West 9.2 mph - N/A   Clear
3:33 AM -9.4 °F -24.3 °F -14.8 °F 77% 30.13 in 10.0 mi West 6.9 mph - N/A   Clear
3:53 AM -9.4 °F -22.7 °F -14.8 °F 77% 30.13 in 10.0 mi West 5.8 mph - N/A   Clear
4:13 AM -9.4 °F -20.9 °F -14.8 °F 77% 30.14 in 10.0 mi West 4.6 mph - N/A   Clear
4:33 AM -9.4 °F -20.9 °F -14.8 °F 77% 30.14 in 10.0 mi West 4.6 mph - N/A   Clear
4:53 AM -9.4 °F -20.9 °F -14.8 °F 77% 30.15 in 10.0 mi West 4.6 mph - N/A   Scattered Clouds
5:13 AM -11.2 °F -23.0 °F -16.6 °F 77% 30.15 in 10.0 mi West 4.6 mph - N/A   Clear
5:33 AM -11.2 °F -23.0 °F -16.6 °F 77% 30.16 in 10.0 mi West 4.6 mph - N/A   Clear
5:53 AM -11.2 °F -23.0 °F -16.6 °F 77% 30.16 in 10.0 mi West 4.6 mph - N/A   Clear
6:13 AM -11.2 °F -20.6 °F -16.6 °F 77% 30.17 in 10.0 mi West 3.5 mph - N/A   Clear
6:33 AM -11.2 °F - -16.6 °F 77% 30.18 in 10.0 mi Calm Calm - N/A   Clear
6:53 AM -11.2 °F -20.6 °F -16.6 °F 77% 30.19 in 10.0 mi West 3.5 mph - N/A   Clear
7:13 AM -13.0 °F -25.1 °F -18.4 °F 77% 30.19 in 10.0 mi West 4.6 mph - N/A   Clear
7:33 AM -11.2 °F -20.6 °F -16.6 °F 77% 30.20 in 10.0 mi West 3.5 mph - N/A   Clear
7:53 AM -13.0 °F -27.0 °F -18.4 °F 77% 30.20 in 10.0 mi WNW 5.8 mph - N/A   Clear
8:13 AM -13.0 °F -25.1 °F -18.4 °F 77% 30.21 in 10.0 mi West 4.6 mph - N/A   Clear
8:33 AM -11.2 °F -20.6 °F -16.6 °F 77% 30.22 in 10.0 mi West 3.5 mph - N/A   Clear
8:53 AM -9.4 °F -20.9 °F -16.6 °F 71% 30.22 in 10.0 mi West 4.6 mph - N/A   Clear
9:13 AM -9.4 °F -24.3 °F -14.8 °F 77% 30.23 in 10.0 mi West 6.9 mph - N/A   Clear
9:33 AM -9.4 °F -22.7 °F -14.8 °F 77% 30.24 in 10.0 mi West 5.8 mph - N/A   Clear
9:53 AM -7.6 °F -22.1 °F -13.0 °F 77% 30.24 in 10.0 mi West 6.9 mph - N/A   Clear
10:13 AM -5.8 °F -24.4 °F -13.0 °F 71% 30.25 in 10.0 mi WNW 11.5 mph - N/A   Clear
10:33 AM -5.8 °F -22.4 °F -11.2 °F 77% 30.26 in 10.0 mi West 9.2 mph - N/A   Clear
10:53 AM -4.0 °F -21.2 °F -11.2 °F 71% 30.26 in 10.0 mi WNW 10.4 mph - N/A   Clear
11:13 AM -2.2 °F -18.9 °F -11.2 °F 66% 30.26 in 10.0 mi West 10.4 mph - N/A   Clear
11:33 AM -2.2 °F -15.6 °F -11.2 °F 66% 30.26 in 10.0 mi West 6.9 mph - N/A   Clear
11:53 AM -2.2 °F -18.0 °F -11.2 °F 66% 30.26 in 10.0 mi WNW 9.2 mph - N/A   Clear
12:13 PM -0.4 °F -12.0 °F -9.4 °F 66% 30.27 in 10.0 mi West 5.8 mph - N/A   Clear
12:33 PM -0.4 °F -15.7 °F -9.4 °F 66% 30.27 in 10.0 mi WNW 9.2 mph - N/A   Clear
12:53 PM -0.4 °F -12.0 °F -9.4 °F 66% 30.27 in 10.0 mi West 5.8 mph - N/A   Clear
1:13 PM 1.4 °F -12.5 °F -9.4 °F 61% 30.27 in 10.0 mi West 8.1 mph - N/A   Scattered Clouds
1:33 PM -0.4 °F -13.4 °F -9.4 °F 66% 30.28 in 10.0 mi West 6.9 mph - N/A   Scattered Clouds
1:53 PM 1.4 °F -12.5 °F -9.4 °F 61% 30.28 in 10.0 mi West 8.1 mph - N/A   Scattered Clouds
2:13 PM 1.4 °F -11.3 °F -9.4 °F 61% 30.28 in 10.0 mi West 6.9 mph - N/A   Mostly Cloudy
2:33 PM -0.4 °F -14.7 °F -9.4 °F 66% 30.28 in 10.0 mi West 8.1 mph - N/A   Scattered Clouds
2:53 PM -0.4 °F -12.0 °F -9.4 °F 66% 30.28 in 10.0 mi West 5.8 mph - N/A   Scattered Clouds
3:13 PM -0.4 °F -12.0 °F -9.4 °F 66% 30.29 in 10.0 mi WNW 5.8 mph - N/A   Clear
3:33 PM -0.4 °F -12.0 °F -9.4 °F 66% 30.29 in 10.0 mi WNW 5.8 mph - N/A   Scattered Clouds
3:53 PM -2.2 °F -12.5 °F -9.4 °F 71% 30.30 in 10.0 mi West 4.6 mph - N/A   Scattered Clouds
4:13 PM -2.2 °F -14.2 °F -9.4 °F 71% 30.31 in 10.0 mi West 5.8 mph - N/A   Clear
4:33 PM -4.0 °F -17.8 °F -9.4 °F 78% 30.31 in 10.0 mi West 6.9 mph - N/A   Scattered Clouds
4:53 PM -4.0 °F -12.4 °F -11.2 °F 71% 30.32 in 10.0 mi West 3.5 mph - N/A   Clear
5:13 PM -5.8 °F -16.7 °F -11.2 °F 77% 30.33 in 7.0 mi West 4.6 mph - N/A   Clear
5:33 PM -5.8 °F -19.9 °F -11.2 °F 77% 30.33 in 10.0 mi West 6.9 mph - N/A   Clear
5:53 PM -5.8 °F -18.4 °F -11.2 °F 77% 30.34 in 10.0 mi West 5.8 mph - N/A   Clear
6:13 PM -7.6 °F -20.6 °F -13.0 °F 77% 30.34 in 10.0 mi West 5.8 mph - N/A   Clear
6:33 PM -7.6 °F -22.1 °F -13.0 °F 77% 30.34 in 10.0 mi West 6.9 mph - N/A   Clear
6:53 PM -7.6 °F -22.1 °F -14.8 °F 71% 30.34 in 10.0 mi West 6.9 mph - N/A   Clear
7:13 PM -9.4 °F -24.3 °F -14.8 °F 77% 30.35 in 10.0 mi West 6.9 mph - N/A   Clear
7:33 PM -9.4 °F -26.8 °F -14.8 °F 77% 30.35 in 10.0 mi West 9.2 mph - N/A   Clear
7:53 PM -9.4 °F -25.6 °F -16.6 °F 71% 30.36 in 10.0 mi West 8.1 mph - N/A   Clear
8:13 PM -11.2 °F -26.4 °F -16.6 °F 77% 30.36 in 10.0 mi West 6.9 mph - N/A   Clear
8:33 PM -11.2 °F -24.8 °F -16.6 °F 77% 30.37 in 10.0 mi WNW 5.8 mph - N/A   Clear
8:53 PM -11.2 °F -26.4 °F -18.4 °F 70% 30.38 in 10.0 mi WNW 6.9 mph - N/A   Clear
9:13 PM -13.0 °F -30.0 °F -18.4 °F 77% 30.38 in 10.0 mi WNW 8.1 mph - N/A   Clear
9:33 PM -14.8 °F -29.1 °F -18.4 °F 84% 30.39 in 10.0 mi WNW 5.8 mph - N/A   Clear
9:53 PM -14.8 °F -29.1 °F -18.4 °F 84% 30.39 in 10.0 mi WNW 5.8 mph - N/A   Clear
10:13 PM -14.8 °F -29.1 °F -20.2 °F 77% 30.39 in 10.0 mi West 5.8 mph - N/A   Clear
10:33 PM -14.8 °F -29.1 °F -20.2 °F 77% 30.39 in 10.0 mi West 5.8 mph - N/A   Clear
10:53 PM -14.8 °F -27.2 °F -20.2 °F 77% 30.40 in 10.0 mi West 4.6 mph - N/A   Clear
11:13 PM -14.8 °F -29.1 °F -20.2 °F 77% 30.40 in 10.0 mi West 5.8 mph - N/A   Clear
11:33 PM -16.6 °F -29.3 °F -20.2 °F 84% 30.41 in 10.0 mi West 4.6 mph - N/A   Clear
11:53 PM -16.6 °F -26.8 °F -20.2 °F 84% 30.41 in 10.0 mi West 3.5 mph - N/A   Clear